Location: Arleux
(50.3632°N, 2.8721°E)
Time: 02:27:48
(UTC+00:00)

GEOS 3 Rocket - Pass Details

Date: 15 December 2019
Orbit: 782 x 837 km, 115.0° (Epoch: 26 January)

Event Time Altitude Azimuth Distance (km) Brightness Sun altitude
Rises 05:00:43 0° 142° (SE) 3,264 7.4 -24.4°
Reaches altitude 10° 05:02:59 10° 145° (SE) 2,343 6.5 -24.0°
Maximum altitude 05:08:04 73° 230° (SW) 832 3.5 -23.2°
Enters shadow 05:09:05 56° 293° (WNW) 944 3.6 -23.0°
